JBU1348 TJSJ-KDCA

Flight info

Callsign JBU1348
Flight time N/A
Altitude 34000
Route PALDE DCT DONQU DCT LNHOM/M078F340 L452 OXANA/N0455F340 AR8 ECG DCT WAVES CAPSS4
Aircraft A321/M-SDE3FGHIRWY/LB1

Departure

Time N/A
Airport Luis Munoz Marin International Airport (TJSJ)

Arrival

Time 2026-04-30 01:02
Airport Ronald Reagan Washington National Airport (KDCA)
Time Latitude Longitude Altitude Speed Heading
2026-04-30 00:30 36.75959 -76.64921 35893 ft 404 kts 316°
2026-04-30 00:30 36.78202 -76.67026 35895 ft 403 kts 315°
2026-04-30 00:31 36.82623 -76.71238 35904 ft 402 kts 314°
2026-04-30 00:31 36.87056 -76.75489 35904 ft 402 kts 314°
2026-04-30 00:32 36.91498 -76.79735 35889 ft 402 kts 314°
2026-04-30 00:32 36.95938 -76.83986 35891 ft 402 kts 314°
2026-04-30 00:33 37.00375 -76.88234 35884 ft 399 kts 314°
2026-04-30 00:33 37.04757 -76.92427 35850 ft 396 kts 314°
2026-04-30 00:34 37.09131 -76.96646 35801 ft 397 kts 314°
2026-04-30 00:34 37.11334 -76.98782 34949 ft 404 kts 314°
2026-04-30 00:34 37.13570 -77.00950 33985 ft 406 kts 314°
2026-04-30 00:34 37.15811 -77.03112 32331 ft 409 kts 315°
2026-04-30 00:35 37.18090 -77.05307 30568 ft 416 kts 315°
2026-04-30 00:35 37.20375 -77.07504 29534 ft 407 kts 315°
2026-04-30 00:35 37.22545 -77.09573 29325 ft 377 kts 315°
2026-04-30 00:35 37.24540 -77.11467 29214 ft 358 kts 315°
2026-04-30 00:36 37.26552 -77.13417 28783 ft 368 kts 314°
2026-04-30 00:36 37.28571 -77.15391 28321 ft 367 kts 314°
2026-04-30 00:36 37.30582 -77.17353 27856 ft 365 kts 315°
2026-04-30 00:36 37.32580 -77.19297 27390 ft 362 kts 315°
2026-04-30 00:37 37.34567 -77.21227 26932 ft 359 kts 315°
2026-04-30 00:37 37.36539 -77.23140 26505 ft 357 kts 314°
2026-04-30 00:37 37.38498 -77.25039 26029 ft 355 kts 315°
2026-04-30 00:37 37.40445 -77.26932 25580 ft 352 kts 315°
2026-04-30 00:38 37.42375 -77.28814 25135 ft 350 kts 315°
2026-04-30 00:38 37.44294 -77.30684 24697 ft 349 kts 315°
2026-04-30 00:38 37.46211 -77.32551 24256 ft 347 kts 315°
2026-04-30 00:38 37.48116 -77.34408 23826 ft 346 kts 316°
2026-04-30 00:39 37.50020 -77.36265 23398 ft 345 kts 316°
2026-04-30 00:39 37.51910 -77.38111 22960 ft 342 kts 316°
2026-04-30 00:39 37.53784 -77.39942 22536 ft 339 kts 316°
2026-04-30 00:39 37.55677 -77.41709 22134 ft 341 kts 322°
2026-04-30 00:40 37.57857 -77.42998 21877 ft 355 kts 334°
2026-04-30 00:40 37.60332 -77.43650 21687 ft 374 kts 347°
2026-04-30 00:40 37.62967 -77.43491 21264 ft 386 kts
2026-04-30 00:40 37.65600 -77.42690 20881 ft 389 kts
2026-04-30 00:41 37.68221 -77.41864 20492 ft 387 kts
2026-04-30 00:41 37.70826 -77.41051 20106 ft 385 kts
2026-04-30 00:41 37.73415 -77.40245 19721 ft 383 kts
2026-04-30 00:41 37.75960 -77.39452 19352 ft 381 kts
2026-04-30 00:42 37.78529 -77.38653 18967 ft 379 kts
2026-04-30 00:42 37.81081 -77.37858 18598 ft 377 kts
2026-04-30 00:42 37.83622 -77.37071 18226 ft 375 kts
2026-04-30 00:42 37.86151 -77.36287 17820 ft 373 kts
2026-04-30 00:43 37.88662 -77.35512 17454 ft 371 kts
2026-04-30 00:43 37.91166 -77.34743 17083 ft 369 kts
2026-04-30 00:43 37.93650 -77.33983 16726 ft 366 kts
2026-04-30 00:43 37.96124 -77.33228 16367 ft 365 kts
2026-04-30 00:44 37.98581 -77.32474 16001 ft 363 kts
2026-04-30 00:44 38.01032 -77.31721 15769 ft 362 kts
2026-04-30 00:44 38.03481 -77.30969 15440 ft 361 kts
2026-04-30 00:44 38.05913 -77.30223 15087 ft 359 kts
2026-04-30 00:45 38.08331 -77.29477 14731 ft 357 kts
2026-04-30 00:45 38.10740 -77.28724 14380 ft 355 kts
2026-04-30 00:45 38.13131 -77.27972 14035 ft 353 kts
2026-04-30 00:45 38.15514 -77.27218 13687 ft 352 kts
2026-04-30 00:46 38.17886 -77.26468 13315 ft 350 kts
2026-04-30 00:46 38.20215 -77.25732 12984 ft 348 kts
2026-04-30 00:46 38.22554 -77.24927 12702 ft 348 kts 10°
2026-04-30 00:46 38.24872 -77.24059 12429 ft 347 kts 11°
2026-04-30 00:47 38.27178 -77.23163 12161 ft 346 kts 12°
2026-04-30 00:47 38.29473 -77.22263 11876 ft 345 kts 11°
2026-04-30 00:47 38.31762 -77.21371 11607 ft 344 kts 11°
2026-04-30 00:47 38.34056 -77.20489 11353 ft 343 kts 11°
2026-04-30 00:48 38.36335 -77.19620 11084 ft 341 kts 11°
2026-04-30 00:48 38.38599 -77.18757 10902 ft 339 kts 11°
2026-04-30 00:48 38.40866 -77.17889 10825 ft 340 kts 11°
2026-04-30 00:48 38.43130 -77.17020 10718 ft 340 kts 12°
2026-04-30 00:49 38.45388 -77.16147 10598 ft 339 kts 12°
2026-04-30 00:49 38.47645 -77.15269 10496 ft 338 kts 12°
2026-04-30 00:49 38.49891 -77.14395 10386 ft 338 kts 12°
2026-04-30 00:49 38.52131 -77.13521 10264 ft 331 kts 12°
2026-04-30 00:50 38.54291 -77.12674 10149 ft 319 kts 12°
2026-04-30 00:50 38.56377 -77.11862 10012 ft 308 kts 11°
2026-04-30 00:50 38.58406 -77.11078 9757 ft 302 kts 11°
2026-04-30 00:50 38.60409 -77.10310 9548 ft 300 kts 11°
2026-04-30 00:51 38.62404 -77.09550 9250 ft 298 kts 11°
2026-04-30 00:51 38.64387 -77.08795 8962 ft 296 kts 11°
2026-04-30 00:51 38.66358 -77.08040 8655 ft 294 kts 11°
2026-04-30 00:51 38.68316 -77.07301 8332 ft 292 kts
2026-04-30 00:52 38.70302 -77.06948 8034 ft 286 kts 358°
2026-04-30 00:52 38.72252 -77.06754 7750 ft 285 kts 358°
2026-04-30 00:52 38.74208 -77.06560 7560 ft 277 kts 358°
2026-04-30 00:52 38.76037 -77.06667 7447 ft 249 kts 342°
2026-04-30 00:53 38.77615 -77.07286 7306 ft 229 kts 329°
2026-04-30 00:53 38.78967 -77.08275 7070 ft 221 kts 321°
2026-04-30 00:53 38.80252 -77.09338 6719 ft 219 kts 321°
2026-04-30 00:53 38.81531 -77.10391 6373 ft 218 kts 321°
2026-04-30 00:54 38.82803 -77.11440 5997 ft 215 kts 320°
2026-04-30 00:54 38.83929 -77.12658 5419 ft 211 kts 309°
2026-04-30 00:54 38.84980 -77.13980 4813 ft 213 kts 309°
2026-04-30 00:54 38.86051 -77.15314 4374 ft 215 kts 309°
2026-04-30 00:55 38.87128 -77.16652 4094 ft 214 kts 309°
2026-04-30 00:55 38.88197 -77.17978 3767 ft 214 kts 309°
2026-04-30 00:55 38.90340 -77.20640 3073 ft 214 kts 308°
2026-04-30 00:56 38.91407 -77.21970 3007 ft 216 kts 309°
2026-04-30 00:56 38.92478 -77.23306 3008 ft 218 kts 311°
2026-04-30 00:56 38.93828 -77.24263 2995 ft 228 kts 344°
2026-04-30 00:56 38.95416 -77.24199 2999 ft 239 kts 14°
2026-04-30 00:57 38.96817 -77.23119 2976 ft 232 kts 48°
2026-04-30 00:57 38.97587 -77.21367 3013 ft 223 kts 79°
2026-04-30 00:57 38.97642 -77.19470 2902 ft 206 kts 109°
2026-04-30 00:57 38.97193 -77.17777 2768 ft 201 kts 118°
2026-04-30 00:58 38.96696 -77.16112 2703 ft 196 kts 125°
2026-04-30 00:58 38.95943 -77.14708 2689 ft 189 kts 142°
2026-04-30 00:58 38.94974 -77.13600 2417 ft 184 kts 148°
2026-04-30 00:58 38.94017 -77.12542 2167 ft 179 kts 147°
2026-04-30 00:59 38.93053 -77.11616 1957 ft 167 kts 160°
2026-04-30 00:59 38.92038 -77.10973 1717 ft 158 kts 159°
2026-04-30 00:59 38.91164 -77.10220 1551 ft 150 kts 143°
2026-04-30 00:59 38.90614 -77.09124 1321 ft 149 kts 117°
2026-04-30 01:00 38.90326 -77.07863 1106 ft 146 kts 118°
2026-04-30 01:00 38.89768 -77.06818 933 ft 138 kts 139°
2026-04-30 01:00 38.89120 -77.05931 748 ft 138 kts 135°
2026-04-30 01:00 38.88462 -77.05019 577 ft 139 kts 134°
2026-04-30 01:01 38.87751 -77.04209 378 ft 137 kts 150°
2026-04-30 01:01 38.86829 -77.03946 209 ft 136 kts 175°
2026-04-30 01:01 38.85887 -77.03848 38 ft 136 kts 175°
2026-04-30 01:01 38.85067 -77.03767 21 ft 94 kts 175°
2026-04-30 01:02 38.84630 -77.03724 20 ft 42 kts 176°
2026-04-30 01:02 38.84437 -77.03712 20 ft 15 kts 188°
2026-04-30 01:02 38.84393 -77.03769 22 ft 8 kts 257°
2026-04-30 01:02 38.84394 -77.03828 23 ft 2 kts 282°
2026-04-30 01:03 38.84405 -77.03841 26 ft 3 kts 332°
2026-04-30 01:03 38.84419 -77.03843 23 ft 0 kts 358°
2026-04-30 01:04 38.84433 -77.03844 23 ft 8 kts 358°
2026-04-30 01:04 38.84552 -77.03855 21 ft 22 kts 355°
2026-04-30 01:04 38.84694 -77.03868 22 ft 18 kts 352°
2026-04-30 01:05 38.84755 -77.03919 21 ft 10 kts 303°
2026-04-30 01:05 38.84827 -77.03943 19 ft 13 kts 354°
2026-04-30 01:05 38.84918 -77.03954 18 ft 13 kts 354°
2026-04-30 01:05 38.85001 -77.03963 18 ft 11 kts 355°
2026-04-30 01:06 38.85068 -77.03967 18 ft 8 kts 356°
2026-04-30 01:06 38.85118 -77.03972 18 ft 6 kts 355°